Satellite-Ground Cal/Val Site Overpasses Predictions

Prediction of Satellite NPP Overpassing Cal/Val Site: Antarctic Dome C

Ground Cal/Val Site Location: Latitude: -75.10, Longitude: 123.35; Satellite-Ground Site NADIR distance within 100 km.

Table of predicted overpasses for the next 14.0 days since TLE Epoch: 8/27/2012
Interval Starting Time Ending Time Minimum Distance Time Minimum Distance (km)
1 08/27/2012 14:52:57 08/27/2012 14:53:26 08/27/2012 14:53:12 19.82
2 08/28/2012 14:34:16 08/28/2012 14:34:29 08/28/2012 14:34:23 87.32
3 08/29/2012 07:35:48 08/29/2012 07:36:15 08/29/2012 07:36:01 36.73
4 08/30/2012 07:17:01 08/30/2012 07:17:21 08/30/2012 07:17:11 73.41
5 09/01/2012 14:59:14 09/01/2012 14:59:38 09/01/2012 14:59:26 56.73
6 09/02/2012 14:40:24 09/02/2012 14:40:49 09/02/2012 14:40:37 52.46
7 09/03/2012 07:42:04 09/03/2012 07:42:25 09/03/2012 07:42:15 71.89
8 09/04/2012 07:23:11 09/04/2012 07:23:39 09/04/2012 07:23:25 36.11
9 09/06/2012 15:05:36 09/06/2012 15:05:45 09/06/2012 15:05:40 94.30
10 09/07/2012 14:46:35 09/07/2012 14:47:04 09/07/2012 14:46
